Time,TemperatureF,DewpointF,PressureIn,WindDirection,WindDirectionDegrees,WindSpeedMPH,WindSpeedGustMPH,Humidity,HourlyPrecipIn,Conditions,Clouds,dailyrainin,SolarRadiationWatts/m^2,SoftwareType,DateUTC
2013-03-02 00:01:00,35.0,34.0,-100.00,ESE,113,2.0,5.0,98,0.00,,,0.01,0.000000,,2013-03-02 07:01:00,
2013-03-02 00:11:00,35.0,34.0,-100.00,ESE,113,2.0,5.0,98,0.00,,,0.01,0.000000,,2013-03-02 07:11:00,
2013-03-02 00:32:00,37.0,36.0,-100.00,ESE,115,3.0,7.0,97,0.00,,,0.01,0.000000,,2013-03-02 07:32:00,
2013-03-02 00:42:00,37.0,36.0,-100.00,ESE,115,3.0,7.0,97,0.00,,,0.01,0.000000,,2013-03-02 07:42:00,
2013-03-02 00:52:00,37.0,36.0,-100.00,ESE,115,3.0,7.0,97,0.00,,,0.01,0.000000,,2013-03-02 07:52:00,
2013-03-02 01:01:00,37.0,36.0,-100.00,ESE,115,3.0,7.0,97,0.00,,,0.01,0.000000,,2013-03-02 08:01:00,
2013-03-02 01:11:00,37.0,36.0,-100.00,ESE,115,3.0,7.0,97,0.00,,,0.01,0.000000,,2013-03-02 08:11:00,
2013-03-02 01:42:00,37.0,35.0,-100.00,ENE,66,2.0,6.0,92,0.00,,,-99.99,0.000000,,2013-03-02 08:42:00,
2013-03-02 01:52:00,37.0,35.0,-100.00,ENE,66,2.0,6.0,92,0.00,,,-99.99,0.000000,,2013-03-02 08:52:00,
2013-03-02 02:01:00,37.0,35.0,-100.00,ENE,66,2.0,6.0,92,0.00,,,-99.99,0.000000,,2013-03-02 09:01:00,
2013-03-02 02:11:00,37.0,35.0,-100.00,ENE,66,2.0,6.0,92,0.00,,,-99.99,0.000000,,2013-03-02 09:11:00,
2013-03-02 02:32:00,36.0,34.0,-100.00,SE,124,2.0,6.0,92,0.00,,,0.01,0.000000,,2013-03-02 09:32:00,
2013-03-02 02:42:00,36.0,34.0,-100.00,SE,124,2.0,6.0,92,0.00,,,0.01,0.000000,,2013-03-02 09:42:00,
2013-03-02 02:52:00,36.0,34.0,-100.00,SE,124,2.0,6.0,92,0.00,,,0.01,0.000000,,2013-03-02 09:52:00,
2013-03-02 03:01:00,36.0,34.0,-100.00,SE,124,2.0,6.0,92,0.00,,,0.01,0.000000,,2013-03-02 10:01:00,
2013-03-02 03:14:00,36.0,34.0,-100.00,SE,124,2.0,6.0,92,0.00,,,0.01,0.000000,,2013-03-02 10:14:00,
2013-03-02 03:43:00,33.0,32.0,-100.00,NW,321,2.0,4.0,95,0.00,,,0.01,0.000000,,2013-03-02 10:43:00,
2013-03-02 03:52:00,33.0,32.0,-100.00,NW,321,2.0,4.0,95,0.00,,,0.01,0.000000,,2013-03-02 10:52:00,
2013-03-02 04:01:00,33.0,32.0,-100.00,NW,321,2.0,4.0,95,0.00,,,0.01,0.000000,,2013-03-02 11:01:00,
2013-03-02 04:11:00,33.0,32.0,-100.00,NW,321,2.0,4.0,95,0.00,,,0.01,0.000000,,2013-03-02 11:11:00,
2013-03-02 04:32:00,32.0,31.0,-100.00,NNE,16,3.0,5.0,97,0.00,,,0.01,0.000000,,2013-03-02 11:32:00,
2013-03-02 04:42:00,32.0,31.0,-100.00,NNE,16,3.0,5.0,97,0.00,,,0.01,0.000000,,2013-03-02 11:42:00,
2013-03-02 04:52:00,32.0,31.0,-100.00,NNE,16,3.0,5.0,97,0.00,,,0.01,0.000000,,2013-03-02 11:52:00,
2013-03-02 05:02:00,32.0,31.0,-100.00,NNE,16,3.0,5.0,97,0.00,,,0.01,0.000000,,2013-03-02 12:02:00,
2013-03-02 05:11:00,32.0,31.0,-100.00,NNE,16,3.0,5.0,97,0.00,,,0.01,0.000000,,2013-03-02 12:11:00,
2013-03-02 05:33:00,29.0,28.0,-100.00,NNW,345,2.0,5.0,96,0.00,,,0.01,0.000000,,2013-03-02 12:33:00,
2013-03-02 06:42:00,28.0,28.0,-100.00,NNE,17,2.0,4.0,98,0.00,,,0.01,0.000000,,2013-03-02 13:42:00,
2013-03-02 06:52:00,28.0,28.0,-100.00,NNE,17,2.0,4.0,98,0.00,,,0.01,0.000000,,2013-03-02 13:52:00,
2013-03-02 07:32:00,28.0,28.0,-100.00,NNW,345,2.0,5.0,98,0.00,,,0.01,0.000000,,2013-03-02 14:32:00,
2013-03-02 08:11:00,28.0,28.0,-100.00,NNW,345,2.0,5.0,98,0.00,,,0.01,0.000000,,2013-03-02 15:11:00,
2013-03-02 08:32:00,30.0,29.0,-100.00,NNW,341,3.0,5.0,98,0.00,,,0.01,26.000000,,2013-03-02 15:32:00,
2013-03-02 08:42:00,30.0,29.0,-100.00,NNW,341,3.0,5.0,98,0.00,,,0.01,26.000000,,2013-03-02 15:42:00,
2013-03-02 08:52:00,30.0,29.0,-100.00,NNW,341,3.0,5.0,98,0.00,,,0.01,26.000000,,2013-03-02 15:52:00,
2013-03-02 09:01:00,30.0,29.0,-100.00,NNW,341,3.0,5.0,98,0.00,,,0.01,26.000000,,2013-03-02 16:01:00,
2013-03-02 09:11:00,30.0,29.0,-100.00,NNW,341,3.0,5.0,98,0.00,,,0.01,26.000000,,2013-03-02 16:11:00,
2013-03-02 09:32:00,35.0,34.0,-100.00,NNW,331,3.0,4.0,97,0.00,,,0.01,112.000000,,2013-03-02 16:32:00,
2013-03-02 09:42:00,35.0,34.0,-100.00,NNW,331,3.0,4.0,97,0.00,,,0.01,112.000000,,2013-03-02 16:42:00,
2013-03-02 09:52:00,35.0,34.0,-100.00,NNW,331,3.0,4.0,97,0.00,,,0.01,112.000000,,2013-03-02 16:52:00,
2013-03-02 10:01:00,35.0,34.0,-100.00,NNW,331,3.0,4.0,97,0.00,,,0.01,112.000000,,2013-03-02 17:01:00,
2013-03-02 10:11:00,35.0,34.0,-100.00,NNW,331,3.0,4.0,97,0.00,,,0.01,112.000000,,2013-03-02 17:11:00,
2013-03-02 10:42:00,45.0,35.0,-100.00,South,183,3.0,5.0,68,0.00,,,0.01,226.000000,,2013-03-02 17:42:00,
2013-03-02 10:52:00,45.0,35.0,-100.00,South,183,3.0,5.0,68,0.00,,,0.01,226.000000,,2013-03-02 17:52:00,
2013-03-02 11:01:00,45.0,35.0,-100.00,South,183,3.0,5.0,68,0.00,,,0.01,226.000000,,2013-03-02 18:01:00,
2013-03-02 11:11:00,45.0,35.0,-100.00,South,183,3.0,5.0,68,0.00,,,0.01,226.000000,,2013-03-02 18:11:00,
2013-03-02 11:32:00,48.0,34.0,-100.00,South,174,4.0,10.0,59,0.00,,,0.01,275.000000,,2013-03-02 18:32:00,
2013-03-02 11:42:00,48.0,34.0,-100.00,South,174,4.0,10.0,59,0.00,,,0.01,275.000000,,2013-03-02 18:42:00,
2013-03-02 11:52:00,48.0,34.0,-100.00,South,174,4.0,10.0,59,0.00,,,0.01,275.000000,,2013-03-02 18:52:00,
2013-03-02 12:01:00,48.0,34.0,-100.00,South,174,4.0,10.0,59,0.00,,,0.01,275.000000,,2013-03-02 19:01:00,
2013-03-02 12:11:00,48.0,34.0,-100.00,South,174,4.0,10.0,59,0.00,,,0.01,275.000000,,2013-03-02 19:11:00,
2013-03-02 12:42:00,53.0,35.0,-100.00,NE,53,2.0,7.0,50,0.00,,,0.01,413.000000,,2013-03-02 19:42:00,
2013-03-02 12:52:00,53.0,35.0,-100.00,NE,53,2.0,7.0,50,0.00,,,0.01,413.000000,,2013-03-02 19:52:00,
2013-03-02 13:11:00,53.0,35.0,-100.00,NE,53,2.0,7.0,50,0.00,,,0.01,413.000000,,2013-03-02 20:11:00,
2013-03-02 13:42:00,53.0,33.0,-100.00,SE,125,2.0,8.0,47,0.00,,,0.01,344.000000,,2013-03-02 20:42:00,
2013-03-02 13:52:00,53.0,33.0,-100.00,SE,125,2.0,8.0,47,0.00,,,0.01,344.000000,,2013-03-02 20:52:00,
2013-03-02 14:02:00,53.0,33.0,-100.00,SE,125,2.0,8.0,47,0.00,,,0.01,344.000000,,2013-03-02 21:02:00,
2013-03-02 14:11:00,53.0,33.0,-100.00,SE,125,2.0,8.0,47,0.00,,,0.01,344.000000,,2013-03-02 21:11:00,
2013-03-02 14:42:00,52.0,32.0,-100.00,SW,214,4.0,12.0,46,0.00,,,0.01,293.000000,,2013-03-02 21:42:00,
2013-03-02 14:52:00,52.0,32.0,-100.00,SW,214,4.0,12.0,46,0.00,,,0.01,293.000000,,2013-03-02 21:52:00,
2013-03-02 15:01:00,52.0,32.0,-100.00,SW,214,4.0,12.0,46,0.00,,,0.01,293.000000,,2013-03-02 22:01:00,
2013-03-02 15:11:00,52.0,32.0,-100.00,SW,214,4.0,12.0,46,0.00,,,0.01,293.000000,,2013-03-02 22:11:00,
2013-03-02 15:42:00,50.0,30.0,-100.00,South,179,4.0,9.0,46,0.00,,,0.01,158.000000,,2013-03-02 22:42:00,
2013-03-02 15:52:00,50.0,30.0,-100.00,South,179,4.0,9.0,46,0.00,,,0.01,158.000000,,2013-03-02 22:52:00,
2013-03-02 16:01:00,50.0,30.0,-100.00,South,179,4.0,9.0,46,0.00,,,0.01,158.000000,,2013-03-02 23:01:00,
2013-03-02 16:11:00,50.0,30.0,-100.00,South,179,4.0,9.0,46,0.00,,,0.01,158.000000,,2013-03-02 23:11:00,
2013-03-02 16:32:00,49.0,28.0,-100.00,South,169,3.0,9.0,44,0.00,,,-99.99,90.000000,,2013-03-02 23:32:00,
2013-03-02 16:42:00,49.0,28.0,-100.00,South,169,3.0,9.0,44,0.00,,,-99.99,90.000000,,2013-03-02 23:42:00,
2013-03-02 16:52:00,49.0,28.0,-100.00,South,169,3.0,9.0,44,0.00,,,-99.99,90.000000,,2013-03-02 23:52:00,
2013-03-02 17:02:00,49.0,28.0,-100.00,South,169,3.0,9.0,44,0.00,,,-99.99,90.000000,,2013-03-03 00:02:00,
2013-03-02 17:11:00,49.0,28.0,-100.00,South,169,3.0,9.0,44,0.00,,,-99.99,90.000000,,2013-03-03 00:11:00,
2013-03-02 17:42:00,50.0,26.0,-100.00,SW,225,6.0,11.0,39,0.00,,,0.01,62.000000,,2013-03-03 00:42:00,
2013-03-02 17:52:00,50.0,26.0,-100.00,SW,225,6.0,11.0,39,0.00,,,0.01,62.000000,,2013-03-03 00:52:00,
2013-03-02 18:01:00,50.0,26.0,-100.00,SW,225,6.0,11.0,39,0.00,,,0.01,62.000000,,2013-03-03 01:01:00,
2013-03-02 18:11:00,50.0,26.0,-100.00,SW,225,6.0,11.0,39,0.00,,,0.01,62.000000,,2013-03-03 01:11:00,
2013-03-02 18:42:00,47.0,27.0,-100.00,WSW,255,3.0,12.0,46,0.00,,,0.01,23.000000,,2013-03-03 01:42:00,
2013-03-02 18:52:00,47.0,27.0,-100.00,WSW,255,3.0,12.0,46,0.00,,,0.01,23.000000,,2013-03-03 01:52:00,
2013-03-02 19:01:00,47.0,27.0,-100.00,WSW,255,3.0,12.0,46,0.00,,,0.01,23.000000,,2013-03-03 02:01:00,
2013-03-02 19:11:00,47.0,27.0,-100.00,WSW,255,3.0,12.0,46,0.00,,,0.01,23.000000,,2013-03-03 02:11:00,
2013-03-02 19:32:00,46.0,28.0,-100.00,SSW,210,5.0,10.0,50,0.00,,,0.01,0.000000,,2013-03-03 02:32:00,
2013-03-02 19:42:00,46.0,28.0,-100.00,SSW,210,5.0,10.0,50,0.00,,,0.01,0.000000,,2013-03-03 02:42:00,
2013-03-02 19:52:00,46.0,28.0,-100.00,SSW,210,5.0,10.0,50,0.00,,,0.01,0.000000,,2013-03-03 02:52:00,
2013-03-02 20:01:00,46.0,28.0,-100.00,SSW,210,5.0,10.0,50,0.00,,,0.01,0.000000,,2013-03-03 03:01:00,
2013-03-02 20:11:00,46.0,28.0,-100.00,SSW,210,5.0,10.0,50,0.00,,,0.01,0.000000,,2013-03-03 03:11:00,
2013-03-02 20:32:00,44.0,30.0,-100.00,South,169,5.0,12.0,57,0.00,,,0.00,0.000000,,2013-03-03 03:32:00,
2013-03-02 20:42:00,44.0,30.0,-100.00,South,169,5.0,12.0,57,0.00,,,0.00,0.000000,,2013-03-03 03:42:00,
2013-03-02 20:52:00,44.0,30.0,-100.00,South,169,5.0,12.0,57,0.00,,,0.00,0.000000,,2013-03-03 03:52:00,
2013-03-02 21:01:00,44.0,30.0,-100.00,South,169,5.0,12.0,57,0.00,,,0.00,0.000000,,2013-03-03 04:01:00,
2013-03-02 21:11:00,44.0,30.0,-100.00,South,169,5.0,12.0,57,0.00,,,0.00,0.000000,,2013-03-03 04:11:00,
2013-03-02 21:32:00,41.0,30.0,-100.00,NE,39,2.0,7.0,65,0.00,,,0.00,0.000000,,2013-03-03 04:32:00,
2013-03-02 21:42:00,41.0,30.0,-100.00,NE,39,2.0,7.0,65,0.00,,,0.00,0.000000,,2013-03-03 04:42:00,
2013-03-02 21:52:00,41.0,30.0,-100.00,NE,39,2.0,7.0,65,0.00,,,0.00,0.000000,,2013-03-03 04:52:00,
2013-03-02 22:01:00,41.0,30.0,-100.00,NE,39,2.0,7.0,65,0.00,,,0.00,0.000000,,2013-03-03 05:01:00,
2013-03-02 22:11:00,41.0,30.0,-100.00,NE,39,2.0,7.0,65,0.00,,,0.00,0.000000,,2013-03-03 05:11:00,
2013-03-02 22:32:00,42.0,32.0,-100.00,South,183,5.0,11.0,68,0.00,,,0.00,0.000000,,2013-03-03 05:32:00,
2013-03-02 22:42:00,42.0,32.0,-100.00,South,183,5.0,11.0,68,0.00,,,0.00,0.000000,,2013-03-03 05:42:00,
2013-03-02 22:52:00,42.0,32.0,-100.00,South,183,5.0,11.0,68,0.00,,,0.00,0.000000,,2013-03-03 05:52:00,
2013-03-02 23:01:00,42.0,32.0,-100.00,South,183,5.0,11.0,68,0.00,,,0.00,0.000000,,2013-03-03 06:01:00,
2013-03-02 23:11:00,42.0,32.0,-100.00,South,183,5.0,11.0,68,0.00,,,0.00,0.000000,,2013-03-03 06:11:00,
2013-03-02 23:32:00,41.0,32.0,-100.00,South,182,5.0,12.0,70,0.00,,,-99.99,0.000000,,2013-03-03 06:32:00,
2013-03-02 23:42:00,41.0,32.0,-100.00,South,182,5.0,12.0,70,0.00,,,-99.99,0.000000,,2013-03-03 06:42:00,
2013-03-02 23:52:00,41.0,32.0,-100.00,South,182,5.0,12.0,70,0.00,,,-99.99,0.000000,,2013-03-03 06:52:00,